Location: Chippewa Lake
(41.0698°N, 81.9010°W)
Time: 01:52:08
(UTC+00:00)

Cosmos 1295 Rocket - Pass Details

Date: 09 May 2021
Orbit: 944 x 994 km, 82.9° (Epoch: 24 June)

Event Time Altitude Azimuth Distance (km) Brightness Sun altitude
Rises 03:50:02 0° 353° (N) 3,715 8.7 -27.6°
Reaches altitude 10° 03:52:34 10° 354° (N) 2,765 7.7 -27.8°
Maximum altitude 03:58:56 83° 82° (E) 1,006 4.4 -28.3°
Enters shadow 03:59:21 78° 138° (SE) 1,019 4.3 -28.3°
